Time,TemperatureF,DewpointF,PressureIn,WindDirection,WindDirectionDegrees,WindSpeedMPH,WindSpeedGustMPH,Humidity,HourlyPrecipIn,Conditions,Clouds,dailyrainin,SoftwareType,DateUTC
2013-06-11 00:03:00,82.0,78.0,30.01,ENE,75,9.0,12.0,88,0.00,,,0.00,,2013-06-11 04:03:00,
2013-06-11 00:13:00,82.0,78.0,30.01,ENE,75,9.0,12.0,88,0.00,,,0.00,,2013-06-11 04:13:00,
2013-06-11 00:23:00,82.0,78.0,30.00,ENE,74,6.0,14.0,88,0.00,,,0.00,,2013-06-11 04:23:00,
2013-06-11 00:33:00,82.0,78.0,30.00,ENE,69,7.0,15.0,89,0.00,,,0.00,,2013-06-11 04:33:00,
2013-06-11 00:42:00,82.0,78.0,30.00,ENE,69,7.0,15.0,89,0.00,,,0.00,,2013-06-11 04:42:00,
2013-06-11 00:53:00,82.0,78.0,29.99,ENE,63,8.0,16.0,89,0.00,,,0.00,,2013-06-11 04:53:00,
2013-06-11 01:02:00,82.0,78.0,29.99,NE,55,9.0,19.0,88,0.00,,,0.00,,2013-06-11 05:02:00,
2013-06-11 01:12:00,82.0,78.0,29.99,NE,55,9.0,19.0,88,0.00,,,0.00,,2013-06-11 05:12:00,
2013-06-11 01:22:00,81.0,77.0,29.99,ENE,75,4.0,12.0,88,0.00,,,0.00,,2013-06-11 05:22:00,
2013-06-11 01:32:00,82.0,78.0,29.99,East,100,3.0,11.0,88,0.00,,,0.00,,2013-06-11 05:32:00,
2013-06-11 01:42:00,82.0,78.0,29.99,East,100,3.0,11.0,88,0.00,,,0.00,,2013-06-11 05:42:00,
2013-06-11 01:52:00,81.0,77.0,29.98,East,82,0.0,10.0,87,0.00,,,0.00,,2013-06-11 05:52:00,
2013-06-11 02:02:00,81.0,77.0,29.98,East,83,5.0,11.0,87,0.00,,,0.00,,2013-06-11 06:02:00,
2013-06-11 02:12:00,81.0,77.0,29.98,East,83,5.0,11.0,87,0.00,,,0.00,,2013-06-11 06:12:00,
2013-06-11 02:22:00,81.0,77.0,29.99,ESE,102,7.0,15.0,87,0.00,,,0.00,,2013-06-11 06:22:00,
2013-06-11 02:32:00,81.0,76.0,29.98,East,87,3.0,12.0,86,0.00,,,0.00,,2013-06-11 06:32:00,
2013-06-11 02:42:00,82.0,77.0,29.98,East,84,0.0,13.0,86,0.00,,,0.00,,2013-06-11 06:42:00,
2013-06-11 02:52:00,82.0,77.0,29.98,East,84,0.0,13.0,86,0.00,,,0.00,,2013-06-11 06:52:00,
2013-06-11 03:02:00,82.0,77.0,29.97,East,86,0.0,9.0,86,0.00,,,0.00,,2013-06-11 07:02:00,
2013-06-11 03:13:00,82.0,78.0,29.98,ENE,75,2.0,11.0,88,0.00,,,0.00,,2013-06-11 07:13:00,
2013-06-11 03:22:00,82.0,78.0,29.98,ENE,75,2.0,11.0,88,0.00,,,0.00,,2013-06-11 07:22:00,
2013-06-11 03:32:00,82.0,78.0,29.97,East,100,1.0,13.0,88,0.00,,,0.00,,2013-06-11 07:32:00,
2013-06-11 03:42:00,82.0,78.0,29.96,East,91,0.0,12.0,89,0.00,,,0.00,,2013-06-11 07:42:00,
2013-06-11 03:52:00,82.0,78.0,29.96,East,91,0.0,12.0,89,0.00,,,0.00,,2013-06-11 07:52:00,
2013-06-11 04:02:00,82.0,78.0,29.96,East,98,0.0,12.0,89,0.00,,,0.00,,2013-06-11 08:02:00,
2013-06-11 04:12:00,82.0,78.0,29.96,East,98,0.0,12.0,89,0.00,,,0.00,,2013-06-11 08:12:00,
2013-06-11 04:22:00,82.0,79.0,29.96,ENE,71,0.0,11.0,90,0.00,,,0.00,,2013-06-11 08:22:00,
2013-06-11 04:32:00,82.0,79.0,29.96,SE,131,2.0,14.0,90,0.00,,,0.00,,2013-06-11 08:32:00,
2013-06-11 04:42:00,82.0,78.0,29.97,ESE,123,10.0,13.0,89,0.00,,,0.00,,2013-06-11 08:42:00,
2013-06-11 04:52:00,82.0,78.0,29.97,ESE,123,10.0,13.0,89,0.00,,,0.00,,2013-06-11 08:52:00,
2013-06-11 05:02:00,82.0,78.0,29.97,ESE,111,3.0,14.0,88,0.00,,,0.00,,2013-06-11 09:02:00,
2013-06-11 05:12:00,82.0,78.0,29.97,ESE,111,3.0,14.0,88,0.00,,,0.00,,2013-06-11 09:12:00,
2013-06-11 05:22:00,82.0,78.0,29.96,ESE,105,0.0,0.0,87,0.00,,,0.00,,2013-06-11 09:22:00,
2013-06-11 05:33:00,82.0,78.0,29.96,ESE,121,0.0,8.0,87,0.00,,,0.00,,2013-06-11 09:33:00,
2013-06-11 05:43:00,82.0,78.0,29.97,SE,132,0.0,9.0,88,0.00,,,0.00,,2013-06-11 09:43:00,
2013-06-11 05:53:00,82.0,78.0,29.97,SE,132,0.0,9.0,88,0.00,,,0.00,,2013-06-11 09:53:00,
2013-06-11 06:03:00,82.0,78.0,29.97,SE,124,0.0,8.0,88,0.00,,,0.00,,2013-06-11 10:03:00,
2013-06-11 06:12:00,82.0,78.0,29.97,SE,124,0.0,8.0,88,0.00,,,0.00,,2013-06-11 10:12:00,
2013-06-11 06:23:00,82.0,78.0,29.97,SE,127,0.0,7.0,89,0.00,,,0.00,,2013-06-11 10:23:00,
2013-06-11 06:33:00,82.0,78.0,29.97,ESE,112,0.0,13.0,89,0.00,,,0.00,,2013-06-11 10:33:00,
2013-06-11 06:42:00,82.0,78.0,29.97,ESE,112,0.0,13.0,89,0.00,,,0.00,,2013-06-11 10:42:00,
2013-06-11 06:52:00,82.0,78.0,29.97,ESE,112,0.0,7.0,89,0.00,,,0.00,,2013-06-11 10:52:00,
2013-06-11 07:02:00,82.0,79.0,29.97,ESE,110,0.0,5.0,90,0.00,,,0.00,,2013-06-11 11:02:00,
2013-06-11 07:12:00,82.0,79.0,29.97,ESE,110,0.0,5.0,90,0.00,,,0.00,,2013-06-11 11:12:00,
2013-06-11 07:22:00,82.0,78.0,29.98,ESE,110,0.0,0.0,89,0.00,,,0.00,,2013-06-11 11:22:00,
2013-06-11 07:32:00,82.0,78.0,29.98,ESE,110,0.0,0.0,89,0.00,,,0.00,,2013-06-11 11:32:00,
2013-06-11 07:42:00,82.0,78.0,29.98,ESE,110,0.0,0.0,89,0.00,,,0.00,,2013-06-11 11:42:00,
2013-06-11 07:52:00,82.0,79.0,29.99,East,95,0.0,0.0,90,0.00,,,0.00,,2013-06-11 11:52:00,
2013-06-11 08:02:00,82.0,78.0,29.99,ESE,108,0.0,0.0,89,0.00,,,0.00,,2013-06-11 12:02:00,
2013-06-11 08:12:00,83.0,79.0,30.00,ESE,111,2.0,7.0,89,0.00,,,0.00,,2013-06-11 12:12:00,
2013-06-11 08:22:00,83.0,79.0,30.00,ESE,111,2.0,7.0,89,0.00,,,0.00,,2013-06-11 12:22:00,
2013-06-11 08:32:00,83.0,79.0,30.00,ESE,115,1.0,6.0,88,0.00,,,0.00,,2013-06-11 12:32:00,
2013-06-11 08:42:00,83.0,79.0,30.01,ESE,118,0.0,0.0,88,0.00,,,0.00,,2013-06-11 12:42:00,
2013-06-11 08:52:00,83.0,79.0,30.01,ESE,118,0.0,0.0,88,0.00,,,0.00,,2013-06-11 12:52:00,
2013-06-11 09:02:00,83.0,79.0,30.02,SE,144,0.0,11.0,87,0.00,,,0.00,,2013-06-11 13:02:00,
2013-06-11 09:12:00,83.0,79.0,30.02,SE,144,0.0,11.0,87,0.00,,,0.00,,2013-06-11 13:12:00,
2013-06-11 09:22:00,83.0,79.0,30.01,SSE,163,0.0,0.0,87,0.00,,,0.00,,2013-06-11 13:22:00,
2013-06-11 09:32:00,83.0,78.0,30.02,SSE,162,0.0,0.0,86,0.00,,,0.00,,2013-06-11 13:32:00,
2013-06-11 09:42:00,83.0,78.0,30.02,SSE,162,0.0,0.0,86,0.00,,,0.00,,2013-06-11 13:42:00,
2013-06-11 09:52:00,83.0,78.0,30.03,SSE,160,0.0,0.0,86,0.00,,,0.00,,2013-06-11 13:52:00,
2013-06-11 10:02:00,83.0,78.0,30.02,SSE,159,0.0,0.0,86,0.00,,,0.00,,2013-06-11 14:02:00,
2013-06-11 10:12:00,83.0,78.0,30.02,SSE,159,0.0,0.0,86,0.00,,,0.00,,2013-06-11 14:12:00,
2013-06-11 10:22:00,82.0,77.0,30.04,East,86,0.0,9.0,85,0.00,,,0.00,,2013-06-11 14:22:00,
2013-06-11 10:32:00,81.0,76.0,30.04,ENE,77,0.0,6.0,84,0.00,,,0.00,,2013-06-11 14:32:00,
2013-06-11 10:42:00,81.0,76.0,30.04,ENE,77,0.0,6.0,84,0.00,,,0.00,,2013-06-11 14:42:00,
2013-06-11 10:53:00,81.0,76.0,30.02,ENE,74,0.0,4.0,85,0.00,,,0.00,,2013-06-11 14:53:00,
2013-06-11 11:02:00,81.0,76.0,30.02,ENE,73,0.0,0.0,84,0.00,,,0.00,,2013-06-11 15:02:00,
2013-06-11 11:12:00,81.0,76.0,30.02,ENE,73,0.0,0.0,84,0.00,,,0.00,,2013-06-11 15:12:00,
2013-06-11 11:22:00,80.0,75.0,30.01,ENE,74,0.0,0.0,85,0.00,,,0.00,,2013-06-11 15:22:00,
2013-06-11 11:33:00,81.0,76.0,30.01,ENE,74,0.0,4.0,86,0.00,,,0.00,,2013-06-11 15:33:00,
2013-06-11 11:43:00,81.0,76.0,30.01,ENE,74,0.0,4.0,86,0.00,,,0.00,,2013-06-11 15:43:00,
2013-06-11 11:53:00,82.0,77.0,30.02,ENE,66,0.0,7.0,84,0.00,,,0.00,,2013-06-11 15:53:00,
2013-06-11 12:03:00,82.0,77.0,30.02,ENE,67,1.0,7.0,84,0.00,,,0.00,,2013-06-11 16:03:00,
2013-06-11 12:12:00,82.0,77.0,30.02,ENE,67,1.0,7.0,84,0.00,,,0.00,,2013-06-11 16:12:00,
2013-06-11 12:22:00,82.0,77.0,30.03,East,81,3.0,12.0,84,0.00,,,0.00,,2013-06-11 16:22:00,
2013-06-11 12:33:00,82.0,77.0,30.03,ENE,71,4.0,10.0,85,0.00,,,0.00,,2013-06-11 16:33:00,
2013-06-11 12:42:00,82.0,77.0,30.03,East,86,0.0,8.0,85,0.00,,,0.00,,2013-06-11 16:42:00,
2013-06-11 12:53:00,82.0,77.0,30.03,East,86,0.0,8.0,85,0.00,,,0.00,,2013-06-11 16:53:00,
2013-06-11 13:02:00,82.0,77.0,30.03,East,90,0.0,8.0,85,0.00,,,0.00,,2013-06-11 17:02:00,
2013-06-11 13:12:00,82.0,77.0,30.03,East,90,0.0,8.0,85,0.00,,,0.00,,2013-06-11 17:12:00,
2013-06-11 13:22:00,83.0,78.0,30.03,East,84,1.0,7.0,85,0.00,,,0.00,,2013-06-11 17:22:00,
2013-06-11 13:32:00,83.0,78.0,30.03,East,96,5.0,9.0,84,0.00,,,0.00,,2013-06-11 17:32:00,
2013-06-11 13:43:00,83.0,78.0,30.02,East,85,1.0,7.0,84,0.00,,,0.00,,2013-06-11 17:43:00,
2013-06-11 13:53:00,83.0,78.0,30.02,East,85,1.0,7.0,84,0.00,,,0.00,,2013-06-11 17:53:00,
2013-06-11 14:02:00,83.0,77.0,30.02,ENE,78,0.0,1.0,83,0.00,,,0.00,,2013-06-11 18:02:00,
2013-06-11 14:12:00,83.0,77.0,30.02,ENE,78,0.0,1.0,83,0.00,,,0.00,,2013-06-11 18:12:00,
2013-06-11 14:22:00,84.0,77.0,30.01,ENE,75,0.0,0.0,80,0.00,,,0.00,,2013-06-11 18:22:00,
2013-06-11 14:32:00,85.0,78.0,30.00,ENE,76,0.0,3.0,80,0.00,,,0.00,,2013-06-11 18:32:00,
2013-06-11 14:43:00,85.0,78.0,30.00,ENE,76,0.0,3.0,80,0.00,,,0.00,,2013-06-11 18:43:00,
2013-06-11 14:52:00,84.0,77.0,29.99,ENE,58,1.0,5.0,80,0.00,,,0.00,,2013-06-11 18:52:00,
2013-06-11 15:02:00,84.0,77.0,29.99,ENE,69,0.0,5.0,80,0.00,,,0.00,,2013-06-11 19:02:00,
2013-06-11 15:12:00,84.0,77.0,29.99,ENE,69,0.0,5.0,80,0.00,,,0.00,,2013-06-11 19:12:00,
2013-06-11 15:22:00,84.0,78.0,29.98,ESE,114,0.0,0.0,83,0.00,,,0.00,,2013-06-11 19:22:00,
2013-06-11 15:33:00,84.0,79.0,29.98,ESE,115,0.0,5.0,84,0.00,,,0.00,,2013-06-11 19:33:00,
2013-06-11 15:42:00,84.0,79.0,29.98,ESE,115,0.0,5.0,84,0.00,,,0.00,,2013-06-11 19:42:00,
2013-06-11 15:53:00,83.0,78.0,29.98,East,96,0.0,8.0,86,0.00,,,0.00,,2013-06-11 19:53:00,
2013-06-11 16:03:00,83.0,78.0,29.97,East,95,1.0,4.0,86,0.00,,,0.00,,2013-06-11 20:03:00,
2013-06-11 16:12:00,83.0,78.0,29.97,East,95,1.0,4.0,86,0.00,,,0.00,,2013-06-11 20:12:00,
2013-06-11 16:22:00,84.0,79.0,29.97,East,95,0.0,1.0,85,0.00,,,0.00,,2013-06-11 20:22:00,
2013-06-11 16:32:00,84.0,79.0,29.96,East,96,0.0,8.0,85,0.00,,,0.00,,2013-06-11 20:32:00,
2013-06-11 16:42:00,84.0,79.0,29.96,East,96,0.0,8.0,85,0.00,,,0.00,,2013-06-11 20:42:00,
2013-06-11 16:52:00,84.0,79.0,29.96,East,99,0.0,7.0,84,0.00,,,0.00,,2013-06-11 20:52:00,
2013-06-11 17:02:00,83.0,78.0,29.96,East,99,0.0,8.0,84,0.00,,,0.00,,2013-06-11 21:02:00,
2013-06-11 17:12:00,83.0,78.0,29.96,East,99,0.0,8.0,84,0.00,,,0.00,,2013-06-11 21:12:00,
2013-06-11 17:22:00,84.0,79.0,29.95,ESE,104,2.0,11.0,84,0.00,,,0.00,,2013-06-11 21:22:00,
2013-06-11 17:33:00,84.0,79.0,29.96,ESE,104,6.0,8.0,85,0.00,,,0.00,,2013-06-11 21:33:00,
2013-06-11 17:42:00,84.0,79.0,29.96,ESE,104,6.0,8.0,85,0.00,,,0.00,,2013-06-11 21:42:00,
2013-06-11 17:53:00,84.0,79.0,29.96,ESE,105,0.0,11.0,85,0.00,,,0.00,,2013-06-11 21:53:00,
2013-06-11 18:03:00,84.0,79.0,29.96,ESE,108,5.0,9.0,85,0.00,,,0.00,,2013-06-11 22:03:00,
2013-06-11 18:12:00,84.0,79.0,29.96,ESE,108,5.0,9.0,85,0.00,,,0.00,,2013-06-11 22:12:00,
2013-06-11 18:22:00,84.0,79.0,29.95,ESE,111,6.0,9.0,86,0.00,,,0.00,,2013-06-11 22:22:00,
2013-06-11 18:33:00,83.0,78.0,29.95,SE,131,1.0,9.0,86,0.00,,,0.00,,2013-06-11 22:33:00,
2013-06-11 18:42:00,83.0,78.0,29.95,SE,131,1.0,9.0,86,0.00,,,0.00,,2013-06-11 22:42:00,
2013-06-11 18:52:00,84.0,79.0,29.97,SE,124,0.0,9.0,85,0.00,,,0.00,,2013-06-11 22:52:00,
2013-06-11 19:02:00,83.0,78.0,29.97,ESE,121,0.0,0.0,85,0.00,,,0.00,,2013-06-11 23:02:00,
2013-06-11 19:12:00,83.0,78.0,29.97,ESE,121,0.0,0.0,85,0.00,,,0.00,,2013-06-11 23:12:00,
2013-06-11 19:22:00,84.0,79.0,29.98,ESE,119,0.0,7.0,85,0.00,,,0.00,,2013-06-11 23:22:00,
2013-06-11 19:32:00,84.0,79.0,29.98,ESE,115,0.0,7.0,85,0.00,,,0.00,,2013-06-11 23:32:00,
2013-06-11 19:42:00,84.0,79.0,29.98,ESE,115,0.0,7.0,85,0.00,,,0.00,,2013-06-11 23:42:00,
2013-06-11 19:52:00,83.0,78.0,29.99,ESE,107,0.0,7.0,85,0.00,,,0.00,,2013-06-11 23:52:00,
2013-06-11 20:02:00,83.0,78.0,29.99,ESE,107,0.0,6.0,85,0.00,,,0.00,,2013-06-12 00:02:00,
2013-06-11 20:12:00,83.0,78.0,29.99,ESE,105,3.0,11.0,85,0.00,,,0.00,,2013-06-12 00:12:00,
2013-06-11 20:22:00,83.0,78.0,29.99,ESE,105,3.0,11.0,85,0.00,,,0.00,,2013-06-12 00:22:00,
2013-06-11 20:32:00,83.0,78.0,29.99,ESE,105,3.0,11.0,86,0.00,,,0.00,,2013-06-12 00:32:00,
2013-06-11 20:42:00,83.0,78.0,29.99,ESE,105,3.0,11.0,86,0.00,,,0.00,,2013-06-12 00:42:00,
2013-06-11 20:52:00,83.0,79.0,29.99,ESE,103,0.0,9.0,87,0.00,,,0.00,,2013-06-12 00:52:00,
2013-06-11 21:02:00,83.0,79.0,29.99,East,92,0.0,12.0,87,0.00,,,0.00,,2013-06-12 01:02:00,
2013-06-11 21:12:00,83.0,79.0,29.99,East,92,0.0,12.0,87,0.00,,,0.00,,2013-06-12 01:12:00,
2013-06-11 21:22:00,83.0,79.0,30.00,ESE,105,0.0,1.0,87,0.00,,,0.00,,2013-06-12 01:22:00,
2013-06-11 21:32:00,83.0,79.0,30.00,ESE,106,0.0,11.0,87,0.00,,,0.00,,2013-06-12 01:32:00,
2013-06-11 21:42:00,83.0,79.0,30.00,ESE,106,0.0,11.0,87,0.00,,,0.00,,2013-06-12 01:42:00,
2013-06-11 21:52:00,83.0,79.0,30.00,ESE,107,0.0,0.0,87,0.00,,,0.00,,2013-06-12 01:52:00,
2013-06-11 22:02:00,83.0,78.0,30.00,ESE,107,0.0,0.0,86,0.00,,,0.00,,2013-06-12 02:02:00,
2013-06-11 22:12:00,83.0,78.0,30.00,ESE,107,0.0,0.0,86,0.00,,,0.00,,2013-06-12 02:12:00,
2013-06-11 22:22:00,83.0,78.0,29.99,ESE,102,0.0,8.0,86,0.00,,,0.00,,2013-06-12 02:22:00,
2013-06-11 22:32:00,83.0,78.0,30.00,ESE,103,3.0,8.0,86,0.00,,,0.00,,2013-06-12 02:32:00,
2013-06-11 22:42:00,83.0,78.0,29.99,ESE,111,0.0,8.0,86,0.00,,,0.00,,2013-06-12 02:42:00,
2013-06-11 22:52:00,83.0,78.0,29.99,ESE,111,0.0,8.0,86,0.00,,,0.00,,2013-06-12 02:52:00,
2013-06-11 23:02:00,83.0,79.0,29.99,ESE,123,0.0,12.0,87,0.00,,,0.00,,2013-06-12 03:02:00,
2013-06-11 23:12:00,83.0,79.0,29.99,ESE,123,0.0,12.0,87,0.00,,,0.00,,2013-06-12 03:12:00,
2013-06-11 23:22:00,83.0,79.0,30.00,ESE,116,4.0,11.0,87,0.00,,,0.00,,2013-06-12 03:22:00,
2013-06-11 23:33:00,83.0,79.0,30.00,ESE,121,0.0,12.0,87,0.00,,,0.00,,2013-06-12 03:33:00,
2013-06-11 23:43:00,83.0,79.0,30.00,ESE,121,0.0,12.0,87,0.00,,,0.00,,2013-06-12 03:43:00,
2013-06-11 23:53:00,83.0,79.0,30.00,SE,139,0.0,12.0,87,0.00,,,0.00,,2013-06-12 03:53:00,